Probability
0 0 0 0 0 0 0 0 0 0 0 0 0 0 0 0 0 0 0 0 0 0 0 0 0 0 0 0 0 0 0 0 0 0 0 0 0 0 0 0 0 0 0 0
0 0 0 0 0 0 0 0 0 0 0 0 0 0 0 0 0 0 0 0 0 0 0 0 0 0 0 0 0 0 0 0 0 0 0 0 0 0 0 0 0 0 0 0
0 0 0 0 0 0 0 0 0 0 0 0 0 0 0 0 0 0 0 0 0 0 0 0 0 0 0 0 0 0 0 0 0 0 0 0 0 0 0 0 0 0 0 0
0 0 0 0 0 0 0 0 0 0 0 0 0 0 0 0 0 0 0 0 0 0 0 0 0 0 0 0 0 0 0 0 0 0 0 0 0 0 0 0 0 0 0 0
0 0 0 0 0 0 0 0 0 0 0 0 0 0 0 0 0 0 0 0 0 0 0 0 0 0 0 0 0 0 0 0 0 0 0 0 0 0 0 0 0 0 0 0
0 0 0 0 0 0 0 0 0 0 0 0 0 0 0 0 0 0 0 0 0 0 0 0 0 0 0 0 0 0 0 0 0 0 0 0 0 0 0 0 0 0 0 0
0 0 0 0 0 0 0 0 0 0 0 0 0 0 0 0 0 0 0 0 0 0 0 0 0 0 0 0 0 0 0 0 0 0 0 0 0 0 0 0 0 0 0 0
0 0 0 0 0 0 0 0 0 0 0 0 0 0 0 0 0 0 0 0 0 0 0 0 0 0 0 0 0 0 0 0 0 0 0 0 0 0 0 0 0 0 0 0
0 0 0 0 0 0 0 0 0 0 0 0 0 0 0 0 0 0 0 0 0 0 0 0 0 0 0 0 0 0 0 0 0 0 0 0 0 0 0 0 0 0 0 0
0 0 0 0 0 0 0 0 0 0 0 0 0 0 0 0 0 0 0 0 0 0 0 0 0 0 0 0 0 0 0 0 0 0 0 0 0 0 0 0 0 0 0 0
0 0 0 0 0 0 0 0 0 0 0 0 0 0 0 0 0 0 0 0 0 0 0 0 0 0 0 0 0 0 0 0 0 0 0 0 0 0 0 0 0 0 0 0
0 0 0 0 0 0 0 0 0 0 0 0 0 0 0 0 0 0 0 0 0 0 0 0 0 0 0 0 0 0 0 0 0 0 0 0 0 0 0 0 0 0 0 0
0 0 0 0 0 0 0 0 0 0 0 0 0 0 0 0 0 0 0 0 0 0 0 0 0 0 0 0 0 0 0 0 0 0 0 0 0 0 0 0 0 0 0 0
0 0 0 0 0 0 0 0 0 0 0 0 0 0 0 0 0 0 0 0 0 0 0 0 0 0 0 0 0 0 0 0 0 0 0 0 0 0 0 0 0 0 0 0
0 0 0 0 0 0 0 0 0 0 0 0 0 0 0 0 0 0 0 0 0 0 0 0 0 0 0 0 0 0 0 0 0 1 1 0 0 0 0 0 0 0 0 0
0 0 0 0 0 0 0 0 0 0 0 0 0 0 0 0 0 0 0 0 0 0 0 0 0 0 0 0 0 0 0 0 1 2 2 1 0 0 0 0 0 0 0 0
0 0 0 0 0 0 0 0 0 0 0 0 0 0 0 0 0 0 0 0 0 0 0 0 0 0 0 0 0 0 0 0 1 2 2 1 0 0 0 0 0 0 0 0
0 0 0 0 0 0 0 0 0 0 0 0 0 0 0 0 0 0 0 0 0 0 0 0 0 0 0 0 0 0 0 0 0 1 1 0 0 0 0 0 0 0 0 0
0 0 0 0 0 0 0 0 0 0 0 0 0 0 0 0 0 0 0 0 0 0 0 0 0 0 0 0 0 0 1 1 0 0 0 0 0 0 0 0 0 0 0 0
0 0 0 0 0 0 0 0 0 0 0 0 0 0 0 0 0 0 0 0 0 0 0 0 0 0 0 0 0 0 1 1 0 0 0 0 0 0 0 0 0 0 0 0
0 0 0 0 0 0 0 0 0 0 0 0 0 0 0 0 0 0 0 0 0 0 0 0 0 0 0 0 0 0 1 1 0 0 0 0 0 0 0 0 0 0 0 0
0 0 0 0 0 0 0 0 0 0 0 0 0 0 0 0 0 0 0 0 0 0 0 0 0 0 0 0 0 0 0 0 0 0 0 0 0 0 0 0 0 0 0 0
0 0 0 0 0 0 0 0 0 0 0 0 0 0 0 0 0 0 0 0 0 0 0 0 0 0 0 0 0 0 0 0 0 0 0 0 0 0 0 0 0 0 0 0
0 0 0 0 0 0 0 0 0 0 0 0 0 0 0 0 0 0 0 0 0 0 0 0 0 0 0 0 0 0 0 0 0 0 0 0 0 0 0 0 0 0 0 0
0 0 0 0 0 0 0 0 0 0 0 0 0 0 0 0 0 0 0 0 0 0 0 0 0 0 0 0 0 0 0 0 0 0 0 0 0 0 0 0 0 0 0 0
0 0 0 0 0 0 0 0 0 0 0 0 0 0 0 0 0 0 0 0 0 0 0 0 0 0 0 0 0 0 0 0 0 0 0 0 0 0 0 0 0 0 0 0
0 0 0 0 0 0 0 0 0 0 0 0 0 0 0 0 0 0 0 0 0 0 0 0 0 0 0 0 0 0 0 0 0 0 0 0 0 0 0 0 0 0 0 0
Wind_Speed
12 10 9 11 11 10 10 11 12 12 11 9 8 7 6 4 3 2 4 6 8 8 9 9 9 9 9 9 8 9 8 7 6 5 5 4 4 3 2 1 2 2 1 1
14 14 13 14 13 13 12 12 11 11 9 7 7 7 8 7 6 3 2 4 6 8 9 10 10 9 8 10 9 9 8 8 6 5 5 5 5 5 4 3 3 2 2 2
12 14 14 13 13 11 7 6 7 7 7 8 9 9 8 6 6 5 4 3 4 7 8 9 11 11 10 10 10 9 9 8 8 6 6 6 5 4 4 4 3 2 2 2
11 13 14 8 6 3 2 3 4 5 7 9 9 8 4 6 7 7 6 3 3 4 7 8 9 11 10 9 11 10 9 8 8 7 6 6 5 4 4 4 4 4 4 3
9 11 12 10 8 7 4 3 8 8 9 11 11 9 7 13 11 9 7 5 2 3 5 7 8 10 11 10 11 11 10 9 8 8 7 6 6 5 4 4 3 3 3 4
8 11 12 6 9 8 5 2 9 10 10 12 12 8 9 13 13 11 10 7 3 2 4 6 7 8 10 11 10 10 10 9 8 8 8 7 6 5 3 3 3 2 2 3
10 12 8 7 8 7 3 5 9 10 10 11 10 9 11 13 12 11 9 8 5 3 3 3 5 6 8 9 10 9 9 9 8 8 8 7 5 4 3 3 2 2 2 2
8 10 4 10 7 7 7 8 9 10 11 11 11 12 12 12 11 11 10 8 6 4 3 2 3 5 7 8 8 9 9 9 8 8 7 6 6 4 4 3 3 2 2 1
6 5 4 5 5 5 6 8 9 9 10 11 12 12 13 12 11 10 10 9 7 5 4 3 3 4 5 5 7 10 10 9 8 8 6 6 6 5 4 3 3 2 2 2
10 8 9 8 6 6 7 8 9 9 11 12 12 13 13 11 11 10 10 9 8 6 5 4 4 4 4 4 8 10 10 9 8 8 7 6 5 4 3 3 2 2 2 2
14 13 12 7 8 11 11 10 11 11 11 11 12 12 12 11 10 9 9 9 8 7 6 6 4 4 5 5 7 9 10 9 9 8 8 6 5 3 4 3 3 3 2 3
12 11 10 10 12 13 12 12 12 12 12 11 12 12 12 10 9 9 10 10 10 9 8 7 6 5 5 6 8 9 9 9 8 7 7 8 8 6 10 7 10 11 9 7
12 10 9 11 12 12 11 12 12 12 13 13 11 10 11 10 9 10 11 11 12 11 10 9 8 6 5 6 8 9 9 9 8 8 9 9 9 9 7 5 8 9 9 10
10 10 11 10 10 10 11 12 12 12 12 12 11 10 10 10 10 11 11 12 12 12 12 11 9 7 5 6 7 8 8 10 9 8 9 9 9 9 9 9 6 4 4 8
9 8 9 9 9 10 9 10 11 11 11 11 10 10 11 11 11 12 13 13 12 12 12 11 10 9 6 6 7 8 8 7 8 8 8 8 9 9 9 9 8 7 5 4
7 8 8 9 9 9 10 11 11 11 11 12 11 11 11 12 12 12 12 12 12 12 12 11 11 9 7 6 6 6 6 10 10 8 8 8 8 9 9 9 9 8 8 7
8 8 8 8 9 10 10 10 11 11 12 12 12 12 12 12 12 11 11 12 12 12 12 12 11 10 8 6 6 5 5 8 13 9 8 8 9 9 9 8 8 8 7 8
6 7 7 8 9 10 11 12 12 13 12 13 13 12 12 12 12 12 12 13 13 13 12 12 11 10 8 7 5 5 6 7 7 8 7 8 8 8 8 8 9 9 7 7
5 7 8 10 10 11 11 12 12 13 13 13 13 13 12 13 13 12 12 13 13 13 11 11 13 11 9 8 7 5 6 7 7 7 7 9 9 8 8 8 8 9 9 8
7 8 10 11 12 12 12 12 13 14 13 13 13 13 13 13 13 13 13 12 10 10 11 12 12 10 9 8 7 5 6 7 8 7 7 8 8 8 8 9 9 9 9 8
9 10 11 12 13 13 14 14 14 14 13 12 12 13 13 13 13 13 11 11 10 10 11 13 10 8 7 6 6 5 6 7 8 8 8 8 8 8 8 9 8 8 8 8
10 11 12 13 14 14 14 14 14 15 14 12 13 13 13 12 12 12 11 9 10 12 10 8 8 10 9 9 5 5 5 6 7 7 8 8 9 9 9 9 8 8 8 7
11 12 13 14 15 15 16 15 15 14 13 12 12 12 12 11 9 10 11 8 8 12 10 9 12 14 13 8 6 6 6 6 7 7 7 8 8 8 8 9 8 8 8 7
13 13 14 15 15 16 16 14 13 11 11 11 10 11 11 10 9 8 8 11 12 14 10 12 16 14 11 6 6 6 6 6 6 7 7 7 7 8 8 8 8 8 8 9
13 14 15 14 14 11 12 12 12 11 11 9 10 10 9 8 8 7 8 9 12 13 10 11 13 11 7 5 5 5 5 5 6 7 7 7 7 8 8 8 8 8 7 7
13 11 10 12 11 9 9 9 9 8 8 8 7 7 7 7 7 7 6 8 11 12 9 6 5 5 5 4 4 4 4 5 7 7 7 8 8 8 8 9 10 8 7 7
12 11 9 9 9 8 8 8 8 8 7 8 8 7 7 7 7 7 7 7 6 6 5 4 4 4 3 3 2 3 3 4 6 7 7 7 8 8 9 10 8 7 7 7
Wind_Direction
305 304 286 280 276 270 265 269 276 285 294 311 320 320 323 318 295 248 207 184 182 180 183 183 181 189 186 179 173 172 172 190 199 192 181 179 165 156 185 214 202 202 249 273
295 294 290 286 277 268 266 271 277 286 295 319 331 340 342 341 333 307 264 205 191 188 188 188 185 188 191 174 171 171 175 185 188 195 180 176 179 177 190 214 233 209 218 238
297 302 298 285 283 279 279 306 315 315 336 351 350 345 342 346 339 326 309 263 207 195 196 194 188 187 194 180 172 176 180 183 181 190 184 178 185 183 191 205 223 230 233 243
289 294 284 291 315 334 336 337 2 353 4 5 351 328 352 16 356 336 325 298 240 204 196 195 189 183 188 177 172 179 184 184 177 181 181 177 181 186 195 203 211 213 219 221
272 276 280 293 330 334 319 28 27 19 13 3 350 332 23 16 1 346 329 310 270 228 204 199 199 185 183 180 179 182 185 181 175 173 175 177 184 195 199 200 208 206 200 204
269 279 283 327 3 354 323 51 35 28 18 5 2 359 357 356 351 346 339 329 312 272 224 202 200 185 182 183 181 182 180 173 170 170 170 175 181 188 187 180 190 199 213 204
263 270 279 9 4 343 326 31 27 22 14 5 1 351 342 344 346 341 337 332 333 310 268 215 192 182 186 184 182 176 165 162 164 164 165 166 169 169 165 164 176 205 223 206
276 274 298 34 24 29 19 17 19 14 5 355 346 341 341 342 340 339 337 336 335 322 301 261 201 189 194 194 176 156 153 156 158 159 164 158 152 157 160 161 172 198 215 222
299 318 14 50 51 45 16 358 1 358 351 343 337 336 336 335 335 336 336 334 329 316 302 283 237 208 205 195 158 148 149 153 154 153 153 148 150 158 164 167 177 187 181 174
301 300 322 340 3 20 10 351 347 347 341 337 332 330 328 329 330 333 334 330 323 312 299 284 260 231 218 186 157 152 156 158 159 159 154 148 147 157 156 160 169 168 150 138
297 301 308 327 358 354 349 344 339 337 333 330 326 321 322 322 326 328 325 324 319 310 297 287 270 240 219 191 168 163 163 166 168 163 157 147 119 86 117 82 107 128 119 108
283 304 311 321 338 338 338 335 332 329 325 323 319 317 319 320 322 321 321 321 319 313 305 295 283 256 223 196 178 172 173 174 170 163 155 145 131 98 64 93 92 88 94 109
292 306 312 318 321 327 328 323 323 322 318 316 316 320 321 320 319 319 320 320 318 314 307 298 286 270 231 198 187 184 181 176 169 165 161 156 153 148 136 94 81 90 100 109
301 307 302 308 314 319 317 318 317 314 314 317 321 323 321 318 318 317 317 316 313 311 305 301 291 278 249 207 193 193 187 180 172 168 166 164 162 160 157 155 152 138 120 130
284 294 300 307 306 307 313 314 313 313 317 320 322 320 319 318 315 313 312 310 307 304 303 301 297 287 268 224 202 198 190 179 173 168 166 166 161 159 159 161 157 152 148 154
297 299 297 297 300 307 312 314 314 314 315 315 315 317 317 313 308 304 304 307 306 303 302 299 293 290 277 238 211 201 194 185 173 168 167 166 165 164 163 163 159 160 164 166
284 285 291 296 303 306 307 309 308 308 309 310 312 313 310 306 303 304 306 305 303 300 298 295 290 290 283 254 219 203 188 182 177 174 174 172 170 169 165 162 162 162 161 162
278 293 303 305 306 307 306 305 304 305 305 305 306 305 303 303 303 302 304 305 303 299 296 295 291 292 287 268 232 208 192 182 183 180 173 172 170 167 162 161 159 151 144 151
289 293 295 295 297 299 299 300 302 301 300 301 301 300 300 300 300 300 301 301 301 299 297 297 296 293 286 269 240 206 194 184 184 181 172 169 168 165 161 159 155 151 151 154
278 283 288 291 293 295 296 298 298 296 295 296 297 297 297 297 299 298 295 292 288 291 298 301 298 290 281 270 243 214 195 187 183 181 175 172 171 165 162 159 157 156 156 158
280 283 286 288 290 292 293 293 293 291 293 294 293 293 293 293 294 295 292 290 290 295 297 297 290 281 273 269 249 228 204 193 185 182 178 174 170 164 162 160 159 157 156 156
283 285 286 287 288 289 290 291 292 293 292 290 291 292 292 292 293 291 285 283 289 294 295 289 286 281 281 278 256 235 214 198 188 181 175 172 168 164 163 160 158 156 152 148
281 283 285 287 288 290 291 289 288 289 288 288 290 290 289 287 286 286 287 286 291 295 294 285 284 279 275 271 253 233 215 198 184 176 171 168 164 160 158 154 151 146 142 139
282 284 285 286 288 288 288 288 288 288 287 287 285 285 285 284 281 278 282 290 292 291 287 283 282 271 263 258 248 231 214 195 177 169 165 159 154 150 147 144 140 137 134 131
283 284 284 287 287 286 287 290 292 289 286 283 283 285 284 280 281 284 286 291 293 291 285 283 278 265 257 251 241 226 207 183 165 157 155 150 145 141 138 135 132 130 128 128
284 284 282 282 282 280 282 283 281 281 283 282 282 283 284 282 282 282 284 286 284 285 285 279 268 254 255 247 224 203 186 164 151 145 141 137 133 131 129 128 126 125 125 124
282 280 276 274 274 274 276 278 280 283 284 285 287 288 289 289 286 284 285 285 280 277 280 274 266 256 254 242 211 179 160 145 135 130 129 126 125 125 126 124 122 121 122 124